contact:dominique.lefevre@mio.osupytheas.fr, maurice.libes@osupytheas.fr, didier.mallarino@osupytheas.fr
Project:EMSO http://www.emso-fr.org/EMSO-France
Depth: 2436.0 m
Title:EMSO Ligure Ouest : Data MII capteur MICROCAT
DateTime_Computer,Latitude,Longitude,Temperature,Conductivity,Pressure,DateTime_Instrument
DateTime_Computer,Latitude,Longitude,degC,S m-1,dbar,DateTime_Instrument
2019-09-25T00:02:55Z,42.805,6.029,13.2976,4.60028,2469.844,2019-9-25T02:03:19Z
2019-09-25T00:05:58Z,42.805,6.029,13.2972,4.60000,2469.83,2019-9-25T02:06:22Z
2019-09-25T00:09:01Z,42.805,6.029,13.2975,4.60007,2469.816,2019-9-25T02:09:25Z
2019-09-25T00:12:05Z,42.805,6.029,13.2970,4.60001,2469.821,2019-9-25T02:12:28Z
2019-09-25T00:15:08Z,42.805,6.029,13.2978,4.60003,2469.844,2019-9-25T02:15:32Z
2019-09-25T00:18:11Z,42.805,6.029,13.2971,4.60003,2469.83,2019-9-25T02:18:35Z
2019-09-25T00:21:14Z,42.805,6.029,13.2970,4.60005,2469.806,2019-9-25T02:21:38Z
2019-09-25T00:24:17Z,42.805,6.029,13.2967,4.60001,2469.844,2019-9-25T02:24:41Z
2019-09-25T00:27:21Z,42.805,6.029,13.2967,4.59991,2469.83,2019-9-25T02:27:44Z
2019-09-25T00:30:24Z,42.805,6.029,13.2976,4.59994,2469.806,2019-9-25T02:30:48Z
2019-09-25T00:33:27Z,42.805,6.029,13.2970,4.59996,2469.806,2019-9-25T02:33:51Z
2019-09-25T00:36:30Z,42.805,6.029,13.2980,4.60002,2469.844,2019-9-25T02:36:54Z
2019-09-25T00:39:33Z,42.805,6.029,13.2978,4.60005,2469.83,2019-9-25T02:39:57Z
2019-09-25T00:42:37Z,42.805,6.029,13.2968,4.59999,2469.806,2019-9-25T02:43:00Z
2019-09-25T00:45:40Z,42.805,6.029,13.2984,4.60013,2469.867,2019-9-25T02:46:04Z
2019-09-25T00:48:43Z,42.805,6.029,13.2968,4.60001,2469.83,2019-9-25T02:49:07Z
2019-09-25T00:51:46Z,42.805,6.029,13.2976,4.59993,2469.83,2019-9-25T02:52:10Z
2019-09-25T00:54:49Z,42.805,6.029,13.2973,4.59995,2469.821,2019-9-25T02:55:13Z
2019-09-25T00:57:53Z,42.805,6.029,13.2964,4.60002,2469.867,2019-9-25T02:58:16Z
2019-09-25T01:00:56Z,42.805,6.029,13.2971,4.59999,2469.806,2019-9-25T03:01:20Z
2019-09-25T01:03:59Z,42.805,6.029,13.2971,4.60018,2469.853,2019-9-25T03:04:23Z
2019-09-25T01:07:02Z,42.805,6.029,13.2968,4.60005,2469.844,2019-9-25T03:07:26Z
2019-09-25T01:10:06Z,42.805,6.029,13.2979,4.60019,2469.83,2019-9-25T03:10:29Z
2019-09-25T01:13:09Z,42.805,6.029,13.2984,4.60023,2469.853,2019-9-25T03:13:33Z
2019-09-25T01:16:12Z,42.805,6.029,13.2986,4.59990,2469.83,2019-9-25T03:16:36Z
2019-09-25T01:19:15Z,42.805,6.029,13.2969,4.60003,2469.83,2019-9-25T03:19:39Z
2019-09-25T01:22:18Z,42.805,6.029,13.2978,4.60001,2469.844,2019-9-25T03:22:42Z
2019-09-25T01:25:22Z,42.805,6.029,13.2972,4.59993,2469.844,2019-9-25T03:25:45Z
2019-09-25T01:28:25Z,42.805,6.029,13.2968,4.60001,2469.844,2019-9-25T03:28:49Z
2019-09-25T01:31:28Z,42.805,6.029,13.2967,4.59991,2469.806,2019-9-25T03:31:52Z
2019-09-25T01:34:31Z,42.805,6.029,13.2972,4.59983,2469.853,2019-9-25T03:34:55Z
2019-09-25T01:37:34Z,42.805,6.029,13.2967,4.59993,2469.867,2019-9-25T03:37:58Z
2019-09-25T01:40:38Z,42.805,6.029,13.2966,4.59983,2469.853,2019-9-25T03:41:01Z
2019-09-25T01:43:41Z,42.805,6.029,13.2965,4.59983,2469.89,2019-9-25T03:44:05Z
2019-09-25T01:46:44Z,42.805,6.029,13.2965,4.60003,2469.83,2019-9-25T03:47:08Z
2019-09-25T01:49:47Z,42.805,6.029,13.2966,4.60013,2469.853,2019-9-25T03:50:11Z
2019-09-25T01:52:50Z,42.805,6.029,13.2968,4.59997,2469.844,2019-9-25T03:53:14Z
2019-09-25T01:55:54Z,42.805,6.029,13.2966,4.59981,2469.83,2019-9-25T03:56:17Z
2019-09-25T01:58:57Z,42.805,6.029,13.2967,4.59986,2469.83,2019-9-25T03:59:21Z
2019-09-25T02:02:00Z,42.805,6.029,13.2970,4.59981,2469.821,2019-9-25T04:02:24Z
2019-09-25T02:05:03Z,42.805,6.029,13.2968,4.59975,2469.867,2019-9-25T04:05:27Z
2019-09-25T02:08:06Z,42.805,6.029,13.2973,4.59981,2469.83,2019-9-25T04:08:30Z
2019-09-25T02:11:10Z,42.805,6.029,13.2974,4.59972,2469.876,2019-9-25T04:11:33Z
2019-09-25T02:14:13Z,42.805,6.029,13.2976,4.59991,2469.876,2019-9-25T04:14:37Z
2019-09-25T02:17:16Z,42.805,6.029,13.2974,4.59993,2469.89,2019-9-25T04:17:40Z
2019-09-25T02:20:19Z,42.805,6.029,13.2969,4.59991,2469.9,2019-9-25T04:20:43Z
2019-09-25T02:23:22Z,42.805,6.029,13.2982,4.59996,2469.867,2019-9-25T04:23:46Z
2019-09-25T02:26:26Z,42.805,6.029,13.2971,4.59994,2469.89,2019-9-25T04:26:49Z
2019-09-25T02:29:29Z,42.805,6.029,13.2969,4.59994,2469.867,2019-9-25T04:29:53Z
2019-09-25T02:32:32Z,42.805,6.029,13.2975,4.59985,2469.876,2019-9-25T04:32:56Z
2019-09-25T02:35:35Z,42.805,6.029,13.2968,4.59991,2469.923,2019-9-25T04:35:59Z
2019-09-25T02:38:38Z,42.805,6.029,13.2965,4.60000,2469.923,2019-9-25T04:39:02Z
2019-09-25T02:41:42Z,42.805,6.029,13.2967,4.59990,2469.816,2019-9-25T04:42:05Z
2019-09-25T02:44:45Z,42.805,6.029,13.2965,4.60003,2469.853,2019-9-25T04:45:09Z
2019-09-25T02:47:48Z,42.805,6.029,13.2970,4.60001,2469.89,2019-9-25T04:48:12Z
2019-09-25T02:50:51Z,42.805,6.029,13.2968,4.59988,2469.876,2019-9-25T04:51:15Z
2019-09-25T02:53:54Z,42.805,6.029,13.2973,4.59992,2469.923,2019-9-25T04:54:18Z
2019-09-25T02:56:58Z,42.805,6.029,13.2973,4.60004,2469.923,2019-9-25T04:57:21Z
2019-09-25T03:00:01Z,42.805,6.029,13.2980,4.60006,2469.89,2019-9-25T05:00:25Z
2019-09-25T03:03:04Z,42.805,6.029,13.2980,4.60019,2469.9,2019-9-25T05:03:28Z
2019-09-25T03:06:07Z,42.805,6.029,13.2990,4.60009,2469.876,2019-9-25T05:06:31Z
2019-09-25T03:09:10Z,42.805,6.029,13.2986,4.60021,2469.876,2019-9-25T05:09:34Z
2019-09-25T03:12:14Z,42.805,6.029,13.2988,4.60025,2469.876,2019-9-25T05:12:37Z
2019-09-25T03:15:17Z,42.805,6.029,13.2983,4.60016,2469.914,2019-9-25T05:15:41Z
2019-09-25T03:18:20Z,42.805,6.029,13.2998,4.60006,2469.9,2019-9-25T05:18:44Z
2019-09-25T03:21:23Z,42.805,6.029,13.3003,4.60033,2469.9,2019-9-25T05:21:47Z
2019-09-25T03:24:27Z,42.805,6.029,13.2990,4.60031,2469.89,2019-9-25T05:24:50Z
2019-09-25T03:27:30Z,42.805,6.029,13.2995,4.60027,2469.89,2019-9-25T05:27:54Z
2019-09-25T03:30:33Z,42.805,6.029,13.2977,4.60006,2469.89,2019-9-25T05:30:57Z
2019-09-25T03:33:36Z,42.805,6.029,13.2985,4.60017,2469.914,2019-9-25T05:34:00Z
2019-09-25T03:36:39Z,42.805,6.029,13.2982,4.60010,2469.853,2019-9-25T05:37:03Z
2019-09-25T03:39:42Z,42.805,6.029,13.2985,4.60020,2469.89,2019-9-25T05:40:06Z
2019-09-25T03:42:46Z,42.805,6.029,13.2972,4.60009,2469.9,2019-9-25T05:43:09Z
2019-09-25T03:45:49Z,42.805,6.029,13.2981,4.60011,2469.9,2019-9-25T05:46:13Z
2019-09-25T03:48:52Z,42.805,6.029,13.2979,4.60011,2469.937,2019-9-25T05:49:16Z
2019-09-25T03:51:55Z,42.805,6.029,13.2990,4.60009,2469.914,2019-9-25T05:52:19Z
2019-09-25T03:54:58Z,42.805,6.029,13.3006,4.60009,2469.914,2019-9-25T05:55:22Z
2019-09-25T03:58:02Z,42.805,6.029,13.2990,4.60036,2469.9,2019-9-25T05:58:26Z
2019-09-25T04:01:05Z,42.805,6.029,13.2981,4.60029,2469.876,2019-9-25T06:01:29Z
2019-09-25T04:04:08Z,42.805,6.029,13.2987,4.60022,2469.914,2019-9-25T06:04:32Z
2019-09-25T04:07:11Z,42.805,6.029,13.3006,4.60023,2469.876,2019-9-25T06:07:35Z
2019-09-25T04:10:14Z,42.805,6.029,13.2975,4.60044,2469.9,2019-9-25T06:10:38Z
2019-09-25T04:13:18Z,42.805,6.029,13.3006,4.60029,2469.914,2019-9-25T06:13:41Z
2019-09-25T04:16:21Z,42.805,6.029,13.3019,4.60027,2469.937,2019-9-25T06:16:45Z
2019-09-25T04:19:24Z,42.805,6.029,13.2971,4.60020,2469.923,2019-9-25T06:19:48Z
2019-09-25T04:22:27Z,42.805,6.029,13.3006,4.60026,2469.923,2019-9-25T06:22:51Z
2019-09-25T04:25:30Z,42.805,6.029,13.3021,4.60035,2469.927,2019-9-25T06:25:54Z
2019-09-25T04:28:34Z,42.805,6.029,13.3004,4.60050,2469.923,2019-9-25T06:28:57Z
2019-09-25T04:31:37Z,42.805,6.029,13.3008,4.60006,2469.89,2019-9-25T06:32:01Z
2019-09-25T04:34:40Z,42.805,6.029,13.3019,4.60054,2469.9,2019-9-25T06:35:04Z
2019-09-25T04:37:43Z,42.805,6.029,13.3009,4.60052,2469.937,2019-9-25T06:38:07Z
2019-09-25T04:40:46Z,42.805,6.029,13.3000,4.60034,2469.937,2019-9-25T06:41:10Z
2019-09-25T04:43:50Z,42.805,6.029,13.2983,4.60064,2469.89,2019-9-25T06:44:14Z
2019-09-25T04:46:53Z,42.805,6.029,13.2998,4.60045,2469.914,2019-9-25T06:47:17Z
2019-09-25T04:49:56Z,42.805,6.029,13.2999,4.60004,2469.914,2019-9-25T06:50:20Z
2019-09-25T04:52:59Z,42.805,6.029,13.3002,4.60057,2469.914,2019-9-25T06:53:23Z
2019-09-25T04:56:02Z,42.805,6.029,13.3006,4.60009,2469.9,2019-9-25T06:56:26Z
2019-09-25T04:59:06Z,42.805,6.029,13.3017,4.60002,2469.9,2019-9-25T06:59:29Z
2019-09-25T05:02:09Z,42.805,6.029,13.3015,4.60027,2469.9,2019-9-25T07:02:33Z
2019-09-25T05:05:12Z,42.805,6.029,13.3015,4.60011,2469.923,2019-9-25T07:05:36Z
2019-09-25T05:08:15Z,42.805,6.029,13.3006,4.60046,2469.9,2019-9-25T07:08:39Z
2019-09-25T05:11:18Z,42.805,6.029,13.3017,4.60032,2469.9,2019-9-25T07:11:42Z
2019-09-25T05:14:22Z,42.805,6.029,13.2994,4.60039,2469.923,2019-9-25T07:14:45Z
2019-09-25T05:17:25Z,42.805,6.029,13.3011,4.60059,2469.89,2019-9-25T07:17:49Z
2019-09-25T05:20:28Z,42.805,6.029,13.3023,4.60039,2469.89,2019-9-25T07:20:52Z
2019-09-25T05:23:31Z,42.805,6.029,13.2984,4.60036,2469.9,2019-9-25T07:23:55Z
2019-09-25T05:26:34Z,42.805,6.029,13.3001,4.60052,2469.914,2019-9-25T07:26:58Z
2019-09-25T05:29:38Z,42.805,6.029,13.2979,4.60026,2469.937,2019-9-25T07:30:01Z
2019-09-25T05:32:41Z,42.805,6.029,13.2998,4.60029,2469.9,2019-9-25T07:33:05Z
2019-09-25T05:35:44Z,42.805,6.029,13.2992,4.60009,2469.937,2019-9-25T07:36:08Z
2019-09-25T05:38:47Z,42.805,6.029,13.3005,4.60031,2469.9,2019-9-25T07:39:11Z
2019-09-25T05:41:50Z,42.805,6.029,13.3001,4.60021,2469.876,2019-9-25T07:42:14Z
2019-09-25T05:44:53Z,42.805,6.029,13.2998,4.60040,2469.9,2019-9-25T07:45:17Z
2019-09-25T05:47:57Z,42.805,6.029,13.3007,4.60025,2469.89,2019-9-25T07:48:20Z
2019-09-25T05:51:00Z,42.805,6.029,13.3005,4.60029,2469.9,2019-9-25T07:51:24Z
2019-09-25T05:54:03Z,42.805,6.029,13.2974,4.60046,2469.89,2019-9-25T07:54:27Z
2019-09-25T05:57:06Z,42.805,6.029,13.2999,4.60056,2469.914,2019-9-25T07:57:30Z
2019-09-25T06:00:10Z,42.805,6.029,13.3007,4.60031,2469.853,2019-9-25T08:00:33Z
2019-09-25T06:03:13Z,42.805,6.029,13.3004,4.60019,2469.937,2019-9-25T08:03:37Z
2019-09-25T06:06:16Z,42.805,6.029,13.3021,4.60025,2469.83,2019-9-25T08:06:40Z
2019-09-25T06:09:19Z,42.805,6.029,13.2971,4.60037,2469.89,2019-9-25T08:09:43Z
2019-09-25T06:12:22Z,42.805,6.029,13.3000,4.60039,2469.89,2019-9-25T08:12:46Z
2019-09-25T06:15:25Z,42.805,6.029,13.3011,4.60004,2469.876,2019-9-25T08:15:49Z
2019-09-25T06:18:29Z,42.805,6.029,13.3010,4.60003,2469.853,2019-9-25T08:18:52Z
2019-09-25T06:21:32Z,42.805,6.029,13.2992,4.60036,2469.89,2019-9-25T08:21:56Z
2019-09-25T06:24:35Z,42.805,6.029,13.3017,4.60025,2469.867,2019-9-25T08:24:59Z
2019-09-25T06:27:38Z,42.805,6.029,13.3012,4.60014,2469.89,2019-9-25T08:28:02Z
2019-09-25T06:30:41Z,42.805,6.029,13.2990,4.60044,2469.867,2019-9-25T08:31:05Z
2019-09-25T06:33:45Z,42.805,6.029,13.3013,4.60014,2469.914,2019-9-25T08:34:08Z
2019-09-25T06:36:48Z,42.805,6.029,13.2979,4.60013,2469.83,2019-9-25T08:37:12Z
2019-09-25T06:39:51Z,42.805,6.029,13.2999,4.60008,2469.9,2019-9-25T08:40:15Z
2019-09-25T06:42:54Z,42.805,6.029,13.3004,4.60046,2469.853,2019-9-25T08:43:18Z
2019-09-25T06:45:57Z,42.805,6.029,13.2979,4.60013,2469.867,2019-9-25T08:46:21Z
2019-09-25T06:49:01Z,42.805,6.029,13.3028,4.60042,2469.89,2019-9-25T08:49:24Z
2019-09-25T06:52:04Z,42.805,6.029,13.3009,4.60047,2469.867,2019-9-25T08:52:28Z
2019-09-25T06:55:07Z,42.805,6.029,13.3012,4.60019,2469.83,2019-9-25T08:55:31Z
2019-09-25T06:58:10Z,42.805,6.029,13.3029,4.60057,2469.89,2019-9-25T08:58:34Z
2019-09-25T07:01:13Z,42.805,6.029,13.3011,4.60060,2469.867,2019-9-25T09:01:37Z
2019-09-25T07:04:16Z,42.805,6.029,13.2988,4.60043,2469.876,2019-9-25T09:04:40Z
2019-09-25T07:07:20Z,42.805,6.029,13.3010,4.59999,2469.876,2019-9-25T09:07:43Z
2019-09-25T07:10:23Z,42.805,6.029,13.3019,4.60035,2469.853,2019-9-25T09:10:47Z
2019-09-25T07:13:26Z,42.805,6.029,13.2999,4.60060,2469.83,2019-9-25T09:13:50Z
2019-09-25T07:16:29Z,42.805,6.029,13.3019,4.60030,2469.844,2019-9-25T09:16:53Z
2019-09-25T07:19:32Z,42.805,6.029,13.2993,4.60048,2469.853,2019-9-25T09:19:56Z
2019-09-25T07:22:36Z,42.805,6.029,13.2998,4.60036,2469.853,2019-9-25T09:22:59Z
2019-09-25T07:25:39Z,42.805,6.029,13.2997,4.60034,2469.867,2019-9-25T09:26:03Z
2019-09-25T07:28:42Z,42.805,6.029,13.2999,4.60006,2469.83,2019-9-25T09:29:06Z
2019-09-25T07:31:45Z,42.805,6.029,13.3004,4.60006,2469.83,2019-9-25T09:32:09Z
2019-09-25T07:34:48Z,42.805,6.029,13.3010,4.60014,2469.83,2019-9-25T09:35:12Z
2019-09-25T07:37:52Z,42.805,6.029,13.2992,4.60019,2469.806,2019-9-25T09:38:16Z
2019-09-25T07:40:55Z,42.805,6.029,13.2991,4.60024,2469.853,2019-9-25T09:41:19Z
2019-09-25T07:43:58Z,42.805,6.029,13.3000,4.60029,2469.821,2019-9-25T09:44:22Z
2019-09-25T07:47:01Z,42.805,6.029,13.3009,4.60019,2469.844,2019-9-25T09:47:25Z
2019-09-25T07:50:04Z,42.805,6.029,13.3002,4.60038,2469.867,2019-9-25T09:50:28Z
2019-09-25T07:53:08Z,42.805,6.029,13.3011,4.59998,2469.844,2019-9-25T09:53:31Z
2019-09-25T07:56:11Z,42.805,6.029,13.2974,4.60014,2469.867,2019-9-25T09:56:35Z
2019-09-25T07:59:14Z,42.805,6.029,13.2986,4.60049,2469.844,2019-9-25T09:59:38Z
2019-09-25T08:02:17Z,42.805,6.029,13.3005,4.60024,2469.853,2019-9-25T10:02:41Z
2019-09-25T08:05:20Z,42.805,6.029,13.3005,4.60035,2469.83,2019-9-25T10:05:44Z
2019-09-25T08:08:24Z,42.805,6.029,13.2993,4.60011,2469.821,2019-9-25T10:08:47Z
2019-09-25T08:11:27Z,42.805,6.029,13.2986,4.60053,2469.867,2019-9-25T10:11:51Z
2019-09-25T08:14:30Z,42.805,6.029,13.3010,4.60028,2469.844,2019-9-25T10:14:54Z
2019-09-25T08:17:33Z,42.805,6.029,13.2983,4.60021,2469.83,2019-9-25T10:17:57Z
2019-09-25T08:20:36Z,42.805,6.029,13.3023,4.60017,2469.853,2019-9-25T10:21:00Z
2019-09-25T08:23:40Z,42.805,6.029,13.3009,4.60026,2469.834,2019-9-25T10:24:03Z
2019-09-25T08:26:43Z,42.805,6.029,13.2994,4.60041,2469.83,2019-9-25T10:27:07Z
2019-09-25T08:29:46Z,42.805,6.029,13.3003,4.60026,2469.83,2019-9-25T10:30:10Z
2019-09-25T08:32:49Z,42.805,6.029,13.2991,4.60016,2469.806,2019-9-25T10:33:13Z
2019-09-25T08:35:52Z,42.805,6.029,13.2991,4.60013,2469.83,2019-9-25T10:36:16Z
2019-09-25T08:38:56Z,42.805,6.029,13.2983,4.60017,2469.844,2019-9-25T10:39:19Z
2019-09-25T08:41:59Z,42.805,6.029,13.2996,4.60041,2469.806,2019-9-25T10:42:23Z
2019-09-25T08:45:02Z,42.805,6.029,13.3006,4.60005,2469.867,2019-9-25T10:45:26Z
2019-09-25T08:48:05Z,42.805,6.029,13.3020,4.60009,2469.806,2019-9-25T10:48:29Z
2019-09-25T08:51:08Z,42.805,6.029,13.3019,4.60011,2469.844,2019-9-25T10:51:32Z
2019-09-25T08:54:12Z,42.805,6.029,13.2996,4.60044,2469.844,2019-9-25T10:54:36Z
2019-09-25T08:57:15Z,42.805,6.029,13.3025,4.60011,2469.844,2019-9-25T10:57:39Z
2019-09-25T09:00:18Z,42.805,6.029,13.2995,4.60007,2469.806,2019-9-25T11:00:42Z
2019-09-25T09:03:21Z,42.805,6.029,13.2990,4.60020,2469.806,2019-9-25T11:03:45Z
2019-09-25T09:06:25Z,42.805,6.029,13.3015,4.60018,2469.821,2019-9-25T11:06:48Z
2019-09-25T09:09:28Z,42.805,6.029,13.3001,4.60007,2469.821,2019-9-25T11:09:52Z
2019-09-25T09:12:31Z,42.805,6.029,13.2978,4.59991,2469.821,2019-9-25T11:12:55Z
2019-09-25T09:15:34Z,42.805,6.029,13.2983,4.60002,2469.821,2019-9-25T11:15:58Z
2019-09-25T09:18:37Z,42.805,6.029,13.2990,4.60016,2469.821,2019-9-25T11:19:01Z
2019-09-25T09:21:41Z,42.805,6.029,13.2986,4.59968,2469.83,2019-9-25T11:22:04Z
2019-09-25T09:24:44Z,42.805,6.029,13.2990,4.59978,2469.806,2019-9-25T11:25:08Z
2019-09-25T09:27:47Z,42.805,6.029,13.2968,4.59982,2469.806,2019-9-25T11:28:11Z
2019-09-25T09:30:50Z,42.805,6.029,13.2989,4.60031,2469.867,2019-9-25T11:31:14Z
2019-09-25T09:33:53Z,42.805,6.029,13.3012,4.60037,2469.806,2019-9-25T11:34:17Z
2019-09-25T09:36:57Z,42.805,6.029,13.3000,4.60011,2469.821,2019-9-25T11:37:20Z
2019-09-25T09:40:00Z,42.805,6.029,13.2996,4.60023,2469.806,2019-9-25T11:40:24Z
2019-09-25T09:43:03Z,42.805,6.029,13.3004,4.59999,2469.844,2019-9-25T11:43:27Z
2019-09-25T09:46:06Z,42.805,6.029,13.2986,4.60016,2469.76,2019-9-25T11:46:30Z
2019-09-25T09:49:09Z,42.805,6.029,13.2980,4.59987,2469.821,2019-9-25T11:49:33Z
2019-09-25T09:52:13Z,42.805,6.029,13.2978,4.59992,2469.806,2019-9-25T11:52:36Z
2019-09-25T09:55:16Z,42.805,6.029,13.2987,4.60027,2469.83,2019-9-25T11:55:40Z
2019-09-25T09:58:19Z,42.805,6.029,13.2998,4.60042,2469.821,2019-9-25T11:58:43Z
2019-09-25T10:01:22Z,42.805,6.029,13.3014,4.60046,2469.806,2019-9-25T12:01:46Z
2019-09-25T10:04:25Z,42.805,6.029,13.3011,4.60036,2469.806,2019-9-25T12:04:49Z
2019-09-25T10:07:29Z,42.805,6.029,13.3010,4.59987,2469.821,2019-9-25T12:07:53Z
2019-09-25T10:10:32Z,42.805,6.029,13.2992,4.59999,2469.821,2019-9-25T12:10:56Z
2019-09-25T10:13:35Z,42.805,6.029,13.2993,4.59991,2469.821,2019-9-25T12:13:59Z
2019-09-25T10:16:38Z,42.805,6.029,13.2963,4.59999,2469.821,2019-9-25T12:17:02Z
2019-09-25T10:19:41Z,42.805,6.029,13.2974,4.59975,2469.821,2019-9-25T12:20:05Z
2019-09-25T10:22:45Z,42.805,6.029,13.2979,4.60001,2469.821,2019-9-25T12:23:09Z
2019-09-25T10:25:48Z,42.805,6.029,13.2978,4.59976,2469.806,2019-9-25T12:26:12Z
2019-09-25T10:28:51Z,42.805,6.029,13.2989,4.59989,2469.773,2019-9-25T12:29:15Z
2019-09-25T10:31:54Z,42.805,6.029,13.2990,4.59988,2469.83,2019-9-25T12:32:18Z
2019-09-25T10:34:58Z,42.805,6.029,13.2971,4.60021,2469.806,2019-9-25T12:35:21Z
2019-09-25T10:38:01Z,42.805,6.029,13.2994,4.59999,2469.844,2019-9-25T12:38:25Z
2019-09-25T10:41:04Z,42.805,6.029,13.3003,4.59993,2469.83,2019-9-25T12:41:28Z
2019-09-25T10:44:07Z,42.805,6.029,13.2983,4.60024,2469.806,2019-9-25T12:44:31Z
2019-09-25T10:47:10Z,42.805,6.029,13.2999,4.60012,2469.83,2019-9-25T12:47:34Z
2019-09-25T10:50:14Z,42.805,6.029,13.3006,4.60052,2469.83,2019-9-25T12:50:37Z
2019-09-25T10:53:17Z,42.805,6.029,13.2986,4.59973,2469.83,2019-9-25T12:53:41Z
2019-09-25T10:56:20Z,42.805,6.029,13.2989,4.59982,2469.83,2019-9-25T12:56:44Z
2019-09-25T10:59:23Z,42.805,6.029,13.3012,4.60062,2469.821,2019-9-25T12:59:47Z
2019-09-25T11:02:26Z,42.805,6.029,13.3003,4.60014,2469.806,2019-9-25T13:02:50Z
2019-09-25T11:05:30Z,42.805,6.029,13.3024,4.60043,2469.821,2019-9-25T13:05:53Z
2019-09-25T11:08:33Z,42.805,6.029,13.3004,4.60077,2469.806,2019-9-25T13:08:57Z
2019-09-25T11:11:36Z,42.805,6.029,13.3018,4.60016,2469.797,2019-9-25T13:12:00Z
2019-09-25T11:14:39Z,42.805,6.029,13.3004,4.59987,2469.806,2019-9-25T13:15:03Z
2019-09-25T11:17:42Z,42.805,6.029,13.2982,4.60001,2469.797,2019-9-25T13:18:06Z
2019-09-25T11:20:46Z,42.805,6.029,13.2997,4.60010,2469.821,2019-9-25T13:21:10Z
2019-09-25T11:23:49Z,42.805,6.029,13.3019,4.60000,2469.806,2019-9-25T13:24:13Z
2019-09-25T11:26:52Z,42.805,6.029,13.3020,4.60030,2469.83,2019-9-25T13:27:16Z
2019-09-25T11:29:55Z,42.805,6.029,13.3007,4.59984,2469.806,2019-9-25T13:30:19Z
2019-09-25T11:32:59Z,42.805,6.029,13.3017,4.59974,2469.783,2019-9-25T13:33:22Z
2019-09-25T11:36:02Z,42.805,6.029,13.3021,4.60014,2469.806,2019-9-25T13:36:26Z
2019-09-25T11:39:05Z,42.805,6.029,13.2993,4.59984,2469.806,2019-9-25T13:39:29Z
2019-09-25T11:42:08Z,42.805,6.029,13.2984,4.60026,2469.83,2019-9-25T13:42:32Z
2019-09-25T11:45:11Z,42.805,6.029,13.3014,4.60018,2469.83,2019-9-25T13:45:35Z
2019-09-25T11:48:15Z,42.805,6.029,13.2984,4.59986,2469.853,2019-9-25T13:48:38Z
2019-09-25T11:51:18Z,42.805,6.029,13.2973,4.60003,2469.844,2019-9-25T13:51:42Z
2019-09-25T11:54:21Z,42.805,6.029,13.2983,4.60049,2469.806,2019-9-25T13:54:45Z
2019-09-25T11:57:24Z,42.805,6.029,13.2975,4.60030,2469.867,2019-9-25T13:57:48Z
2019-09-25T12:00:27Z,42.805,6.029,13.3000,4.60032,2469.844,2019-9-25T14:00:51Z
2019-09-25T12:03:31Z,42.805,6.029,13.3013,4.60050,2469.821,2019-9-25T14:03:54Z
2019-09-25T12:06:34Z,42.805,6.029,13.3005,4.60032,2469.844,2019-9-25T14:06:58Z
2019-09-25T12:09:37Z,42.805,6.029,13.2993,4.60034,2469.821,2019-9-25T14:10:01Z
2019-09-25T12:12:40Z,42.805,6.029,13.3019,4.60058,2469.821,2019-9-25T14:13:04Z
2019-09-25T12:15:43Z,42.805,6.029,13.3009,4.60072,2469.83,2019-9-25T14:16:07Z
2019-09-25T12:18:46Z,42.805,6.029,13.3015,4.60074,2469.797,2019-9-25T14:19:10Z
2019-09-25T12:21:50Z,42.805,6.029,13.3024,4.60049,2469.83,2019-9-25T14:22:14Z
2019-09-25T12:24:53Z,42.805,6.029,13.2968,4.60022,2469.844,2019-9-25T14:25:17Z
2019-09-25T12:27:57Z,42.805,6.029,13.2985,4.60011,2469.853,2019-9-25T14:28:20Z
2019-09-25T12:31:00Z,42.805,6.029,13.3004,4.60026,2469.83,2019-9-25T14:31:24Z
2019-09-25T12:34:03Z,42.805,6.029,13.3017,4.59994,2469.83,2019-9-25T14:34:27Z
2019-09-25T12:37:06Z,42.805,6.029,13.3015,4.60019,2469.83,2019-9-25T14:37:30Z
2019-09-25T12:40:09Z,42.805,6.029,13.3023,4.60064,2469.844,2019-9-25T14:40:33Z
2019-09-25T12:43:13Z,42.805,6.029,13.3015,4.60040,2469.867,2019-9-25T14:43:36Z
2019-09-25T12:46:16Z,42.805,6.029,13.3009,4.60057,2469.867,2019-9-25T14:46:40Z
2019-09-25T12:49:19Z,42.805,6.029,13.2970,4.60043,2469.844,2019-9-25T14:49:43Z
2019-09-25T12:52:22Z,42.805,6.029,13.3000,4.60036,2469.853,2019-9-25T14:52:46Z
2019-09-25T12:55:25Z,42.805,6.029,13.2991,4.60014,2469.876,2019-9-25T14:55:49Z
2019-09-25T12:58:29Z,42.805,6.029,13.3012,4.60021,2469.83,2019-9-25T14:58:52Z
2019-09-25T13:01:32Z,42.805,6.029,13.2977,4.60026,2469.844,2019-9-25T15:01:56Z
2019-09-25T13:04:35Z,42.805,6.029,13.3004,4.60029,2469.876,2019-9-25T15:04:59Z
2019-09-25T13:07:38Z,42.805,6.029,13.2994,4.60040,2469.867,2019-9-25T15:08:02Z
2019-09-25T13:10:41Z,42.805,6.029,13.2993,4.60015,2469.853,2019-9-25T15:11:05Z
2019-09-25T13:13:45Z,42.805,6.029,13.3000,4.60034,2469.844,2019-9-25T15:14:08Z
2019-09-25T13:16:48Z,42.805,6.029,13.2991,4.60011,2469.867,2019-9-25T15:17:12Z
2019-09-25T13:19:51Z,42.805,6.029,13.2972,4.60008,2469.9,2019-9-25T15:20:15Z
2019-09-25T13:22:54Z,42.805,6.029,13.2976,4.59993,2469.876,2019-9-25T15:23:18Z
2019-09-25T13:25:57Z,42.805,6.029,13.2970,4.60019,2469.89,2019-9-25T15:26:21Z
2019-09-25T13:29:01Z,42.805,6.029,13.2979,4.60031,2469.83,2019-9-25T15:29:24Z
2019-09-25T13:32:04Z,42.805,6.029,13.2976,4.60016,2469.876,2019-9-25T15:32:28Z
2019-09-25T13:35:07Z,42.805,6.029,13.2970,4.60011,2469.9,2019-9-25T15:35:31Z
2019-09-25T13:38:10Z,42.805,6.029,13.2984,4.60004,2469.9,2019-9-25T15:38:34Z
2019-09-25T13:41:13Z,42.805,6.029,13.2976,4.60036,2469.876,2019-9-25T15:41:37Z
2019-09-25T13:44:17Z,42.805,6.029,13.2997,4.59990,2469.923,2019-9-25T15:44:40Z
2019-09-25T13:47:20Z,42.805,6.029,13.3014,4.60031,2469.937,2019-9-25T15:47:44Z
2019-09-25T13:50:23Z,42.805,6.029,13.3018,4.60001,2469.89,2019-9-25T15:50:47Z
2019-09-25T13:53:26Z,42.805,6.029,13.3011,4.60034,2469.886,2019-9-25T15:53:50Z
2019-09-25T13:56:29Z,42.805,6.029,13.3019,4.60036,2469.937,2019-9-25T15:56:53Z
2019-09-25T13:59:33Z,42.805,6.029,13.3007,4.60034,2469.96,2019-9-25T15:59:56Z
2019-09-25T14:02:36Z,42.805,6.029,13.3006,4.60017,2469.914,2019-9-25T16:03:00Z
2019-09-25T14:05:39Z,42.805,6.029,13.3014,4.60031,2469.923,2019-9-25T16:06:03Z
2019-09-25T14:08:42Z,42.805,6.029,13.3001,4.60029,2469.937,2019-9-25T16:09:06Z
2019-09-25T14:11:45Z,42.805,6.029,13.2980,4.60035,2469.914,2019-9-25T16:12:09Z
2019-09-25T14:14:49Z,42.805,6.029,13.2990,4.60020,2469.9,2019-9-25T16:15:13Z
2019-09-25T14:17:52Z,42.805,6.029,13.2989,4.60005,2469.9,2019-9-25T16:18:16Z
2019-09-25T14:20:55Z,42.805,6.029,13.3000,4.60004,2469.9,2019-9-25T16:21:19Z
2019-09-25T14:23:58Z,42.805,6.029,13.2996,4.60029,2469.923,2019-9-25T16:24:22Z
2019-09-25T14:27:01Z,42.805,6.029,13.2988,4.60014,2469.923,2019-9-25T16:27:25Z
2019-09-25T14:30:05Z,42.805,6.029,13.3002,4.60014,2469.937,2019-9-25T16:30:28Z
2019-09-25T14:33:08Z,42.805,6.029,13.2987,4.60013,2469.96,2019-9-25T16:33:32Z
2019-09-25T14:36:11Z,42.805,6.029,13.3015,4.60038,2469.96,2019-9-25T16:36:35Z
2019-09-25T14:39:14Z,42.805,6.029,13.2975,4.60043,2469.947,2019-9-25T16:39:38Z
2019-09-25T14:42:17Z,42.805,6.029,13.2986,4.60021,2469.923,2019-9-25T16:42:41Z
2019-09-25T14:45:21Z,42.805,6.029,13.2982,4.60026,2469.947,2019-9-25T16:45:44Z
2019-09-25T14:48:24Z,42.805,6.029,13.2997,4.60020,2469.984,2019-9-25T16:48:48Z
2019-09-25T14:51:27Z,42.805,6.029,13.2979,4.60015,2469.947,2019-9-25T16:51:51Z
2019-09-25T14:54:30Z,42.805,6.029,13.3005,4.59998,2469.97,2019-9-25T16:54:54Z
2019-09-25T14:57:33Z,42.805,6.029,13.2998,4.59986,2469.947,2019-9-25T16:57:57Z
2019-09-25T15:00:37Z,42.805,6.029,13.3005,4.60019,2469.947,2019-9-25T17:01:00Z
2019-09-25T15:03:40Z,42.805,6.029,13.2979,4.60030,2469.923,2019-9-25T17:04:04Z
2019-09-25T15:06:43Z,42.805,6.029,13.2986,4.60029,2469.97,2019-9-25T17:07:07Z
2019-09-25T15:09:46Z,42.805,6.029,13.2968,4.60049,2469.984,2019-9-25T17:10:10Z
2019-09-25T15:12:49Z,42.805,6.029,13.2986,4.59990,2469.984,2019-9-25T17:13:13Z
2019-09-25T15:15:53Z,42.805,6.029,13.2993,4.59999,2469.97,2019-9-25T17:16:16Z